User: anonymous   Login
Location: ????????
(38.4362°N, 22.8767°E)
Time: 17:09:34
(UTC+00:00)
Language:

FENGYUN 3A - Orbit

View from above orbital plane
View from above orbital plane
View from above satellite
View from above satellite

Ground track
Ground track

The orbit data is extracted from the following two-line orbital elements,

1 32958U 08026A   24173.82728363  .00000174  00000-0  10338-3 0  9999
2 32958  98.6042 120.8122 0009818  62.6108 297.6067 14.19107721832501
Epoch (UTC): 21 June 2024 19:51:17
Eccentricity: 0.0009818
inclination: 98.6042°
perigee height: 821 km
apogee height: 835 km
right ascension of ascending node: 120.8122°
argument of perigee: 62.6108°
revolutions per day: 14.19107721
mean anomaly at epoch: 297.6067°
orbit number at epoch: 83250

The dashed part of the orbit path shows where the satellite is in the earth's shadow,  

DLR